Precipitable_Water
0.92 0.97 0.98 0.96 0.98 0.96 0.92 0.90 0.88 0.89 0.87 0.92 0.97 0.97 0.96 0.93 0.90 0.90 0.87 0.86 0.85 0.85 0.83 0.80 0.83 0.92 0.97 1.02 1.05 1.08 1.13 1.21
0.84 0.95 1.00 1.01 1.00 0.98 0.95 0.88 0.84 0.84 0.84 0.88 0.88 0.89 0.89 0.89 0.87 0.87 0.84 0.84 0.85 0.85 0.85 0.83 0.80 0.88 0.96 1.06 1.14 1.17 1.21 1.27
0.82 0.88 0.96 0.99 1.01 1.01 0.98 0.92 0.87 0.82 0.81 0.83 0.81 0.82 0.84 0.85 0.84 0.86 0.85 0.84 0.84 0.87 0.88 0.86 0.80 0.79 0.95 1.10 1.19 1.25 1.26 1.30
0.72 0.82 0.87 0.95 0.98 1.02 1.01 0.97 0.93 0.89 0.82 0.81 0.79 0.79 0.82 0.84 0.83 0.85 0.85 0.86 0.90 0.97 0.96 0.89 0.86 0.81 0.87 1.08 1.17 1.24 1.25 1.29
0.69 0.75 0.83 0.87 0.91 0.96 0.99 0.98 0.95 0.91 0.86 0.82 0.84 0.83 0.83 0.84 0.84 0.88 0.90 0.90 0.91 0.97 0.99 0.97 0.92 0.87 0.88 1.10 1.18 1.21 1.22 1.27
0.67 0.72 0.77 0.83 0.88 0.90 0.92 0.90 0.95 0.91 0.88 0.84 0.80 0.80 0.80 0.80 0.82 0.85 0.87 0.91 0.90 0.95 0.97 1.01 1.02 0.98 0.99 1.07 1.16 1.16 1.25 1.27
0.64 0.70 0.71 0.77 0.78 0.85 0.87 0.86 0.87 0.91 0.92 0.91 0.84 0.78 0.78 0.81 0.81 0.86 0.88 0.90 0.92 0.93 0.95 0.97 1.00 1.05 1.11 1.17 1.21 1.20 1.24 1.26
0.66 0.68 0.71 0.72 0.71 0.75 0.78 0.82 0.84 0.87 0.89 0.91 0.90 0.83 0.84 0.83 0.87 0.88 0.91 0.92 0.91 0.93 0.94 0.95 0.95 1.01 1.02 1.09 1.17 1.21 1.22 1.21
0.63 0.66 0.73 0.71 0.69 0.69 0.72 0.74 0.80 0.80 0.83 0.88 0.90 0.87 0.84 0.87 0.87 0.89 0.92 0.97 0.96 0.91 0.91 0.95 0.94 0.95 0.91 0.94 1.00 1.07 1.13 1.13
0.77 0.70 0.71 0.70 0.72 0.71 0.69 0.69 0.71 0.74 0.79 0.82 0.85 0.87 0.86 0.88 0.87 0.90 0.96 0.95 0.98 0.98 0.87 0.81 0.84 0.84 0.87 0.90 0.95 0.99 0.99 1.00
0.85 0.79 0.69 0.70 0.73 0.78 0.77 0.76 0.73 0.71 0.74 0.76 0.79 0.83 0.86 0.87 0.90 0.91 0.97 0.94 0.93 0.94 0.89 0.84 0.80 0.85 0.86 0.90 0.94 0.96 0.97 1.01
1.00 0.88 0.80 0.74 0.75 0.81 0.83 0.82 0.83 0.83 0.76 0.76 0.79 0.81 0.83 0.84 0.89 0.94 0.98 0.96 0.92 0.92 0.87 0.90 0.85 0.83 0.86 0.88 0.92 0.98 1.01 1.01
1.02 0.99 0.92 0.84 0.74 0.70 0.76 0.72 0.80 0.83 0.84 0.83 0.85 0.90 0.91 0.88 0.87 0.90 0.98 0.94 0.92 0.92 0.91 0.85 0.83 0.91 0.86 0.83 0.87 0.93 0.92 0.94
1.02 1.01 1.04 0.95 0.81 0.73 0.76 0.81 0.84 0.86 0.88 0.85 0.87 0.90 0.93 0.93 0.89 0.87 0.92 0.95 0.94 0.93 0.91 0.86 0.87 0.95 0.83 0.83 0.67 0.73 0.80 0.87
1.04 1.05 1.04 1.08 0.91 0.84 0.81 0.88 0.92 0.88 0.85 0.86 0.88 0.93 0.95 0.97 0.95 0.93 0.93 0.94 0.89 0.91 0.91 0.88 0.80 0.92 0.97 0.86 0.68 0.57 0.66 0.76
1.04 1.09 1.07 1.06 1.12 0.97 0.76 0.64 0.63 0.72 0.79 0.87 0.91 0.97 0.98 1.00 1.00 0.98 0.93 0.93 0.90 0.87 0.92 0.87 0.89 0.76 0.90 0.95 0.93 0.83 0.65 0.58
1.09 1.14 1.14 1.11 1.08 1.01 0.92 0.82 0.70 0.72 0.84 0.85 0.90 0.93 0.97 0.98 1.00 1.00 0.97 0.96 0.93 0.92 0.92 0.90 0.92 0.87 0.84 0.86 0.89 0.89 0.90 0.78
0.96 1.15 1.17 1.21 1.16 1.09 1.01 0.91 0.86 0.82 0.77 0.78 0.81 0.87 0.91 0.95 0.96 0.97 0.96 0.97 0.93 0.94 0.97 0.97 0.95 0.93 0.92 0.89 0.84 0.79 0.77 0.81
0.92 1.15 1.20 1.36 1.27 1.24 1.17 1.06 0.97 0.89 0.89 0.83 0.82 0.85 0.88 0.88 0.94 0.98 0.98 0.98 0.96 0.98 1.00 1.00 0.98 0.95 0.92 0.89 0.92 0.88 0.90 0.87
0.81 0.96 1.13 1.20 1.30 1.29 1.34 1.27 1.06 0.95 0.96 0.93 0.92 0.91 0.90 0.94 0.95 0.98 0.98 0.99 0.98 0.99 0.98 0.99 1.02 0.98 0.94 0.96 0.95 0.91 0.95 0.93
Wind_Speed
12 13 13 13 14 14 15 15 15 15 15 16 16 15 15 15 15 14 14 13 13 13 13 12 12 12 11 10 10 10 9 7
11 12 13 13 13 14 15 15 15 15 15 15 15 15 14 14 14 13 13 12 12 12 11 11 11 10 9 9 8 7 6 5
12 12 13 13 13 14 14 14 15 15 15 15 14 14 14 13 13 12 12 12 12 11 10 10 9 9 8 7 6 5 3 2
13 13 13 13 14 14 14 14 14 14 14 14 14 13 13 12 12 12 11 11 11 10 9 9 8 8 7 6 5 3 1 1
14 14 14 14 13 14 14 14 14 14 14 14 14 13 13 12 12 12 11 11 11 10 9 8 7 7 6 5 4 2 2 2
16 16 15 15 14 14 14 15 15 15 15 15 14 13 13 13 12 12 11 11 11 10 9 8 7 7 6 6 5 5 5 5
17 17 17 16 15 15 14 15 16 16 15 15 15 14 13 13 13 12 12 12 11 10 10 9 8 8 8 7 7 7 7 8
18 18 18 17 17 17 16 15 16 16 16 16 16 15 14 14 13 13 13 12 12 11 11 10 10 9 9 9 9 9 9 10
21 20 20 19 18 18 18 17 17 16 17 17 17 17 16 15 14 14 14 13 12 12 12 12 11 11 11 11 12 12 12 12
24 23 23 22 21 20 19 19 19 19 18 17 18 17 17 16 16 15 15 14 13 13 12 13 13 13 12 12 13 13 14 15
27 27 26 25 23 22 21 20 20 20 20 20 19 19 18 18 16 16 16 15 15 14 13 13 13 14 14 14 15 15 15 16
31 30 29 28 26 25 23 22 22 22 22 22 22 21 21 20 19 18 18 17 16 16 16 15 15 15 15 16 16 17 17 17
36 34 32 31 30 28 27 26 24 23 23 23 23 23 23 23 22 21 20 20 20 19 19 18 18 17 17 17 18 18 19 20
38 37 36 35 33 31 30 28 27 26 25 24 25 25 25 24 24 23 24 23 23 22 22 21 21 20 19 18 18 19 21 21
43 40 38 38 37 35 32 31 29 28 27 27 27 26 26 26 26 26 26 26 26 26 26 26 24 24 24 21 18 19 19 19
49 46 42 40 39 38 38 36 34 32 31 30 29 29 29 28 28 28 28 28 29 29 29 29 28 27 26 28 27 23 21 21
52 50 48 44 42 40 39 39 38 35 34 34 33 32 32 32 31 31 31 31 31 31 31 31 31 31 30 28 30 30 29 27
52 53 52 49 47 44 41 39 38 38 37 37 36 35 35 35 34 34 34 34 34 35 35 34 34 34 33 32 31 30 30 29
50 52 52 52 50 47 45 42 39 39 39 39 38 38 38 37 38 37 37 36 36 37 37 37 36 36 36 35 34 35 33 32
44 49 51 51 53 51 48 46 42 40 40 39 39 39 39 39 38 39 39 39 39 38 39 39 38 38 38 37 36 35 35 34
Wind_Direction
157 158 158 155 156 157 156 154 153 150 148 147 146 146 145 143 142 140 138 136 135 135 135 133 132 130 126 123 120 114 108 107
164 164 166 165 162 162 162 161 160 158 156 155 153 152 151 150 149 148 145 143 142 140 139 139 139 138 132 128 123 118 108 110
174 171 170 172 170 168 168 168 166 165 164 162 161 160 159 158 158 156 155 153 150 148 147 147 146 147 145 139 132 122 108 99
183 180 177 175 177 176 175 175 174 174 172 171 170 169 169 168 167 166 165 163 160 157 155 155 155 155 157 156 152 139 104 52
191 188 186 183 182 183 184 182 182 182 181 180 179 178 177 176 176 175 175 175 174 173 170 171 173 175 178 184 196 229 279 280
197 196 194 192 190 189 189 190 190 189 188 187 187 187 186 186 186 186 186 187 188 190 192 193 195 200 207 216 236 259 276 279
202 202 201 201 200 197 196 196 197 197 196 195 194 194 195 195 196 197 198 198 200 204 208 212 216 222 229 239 254 266 277 279
208 208 207 206 206 206 204 202 202 202 203 204 203 203 203 203 204 205 206 208 211 214 218 223 228 233 240 249 257 270 278 280
216 214 213 213 212 212 212 210 209 208 209 209 210 210 210 210 211 213 214 216 219 223 226 230 236 243 250 256 262 268 274 279
222 221 219 218 218 217 217 217 216 216 214 214 214 215 215 216 218 220 220 222 224 228 232 236 243 248 255 259 265 271 275 279
227 225 224 222 222 221 222 221 222 222 221 221 220 219 219 220 222 223 223 226 230 233 238 241 246 252 258 263 268 272 277 280
229 228 227 225 225 225 225 226 226 226 226 226 226 226 225 225 227 228 228 232 235 238 242 246 251 255 260 266 271 274 278 281
230 229 229 227 227 227 228 228 228 229 229 229 229 229 230 231 233 234 235 237 240 243 246 250 253 257 262 268 272 275 277 279
230 231 229 229 229 230 230 230 231 232 232 233 233 233 233 235 237 239 240 242 245 246 248 253 256 257 261 269 276 280 277 277
230 230 230 230 231 230 231 232 234 234 235 235 235 235 236 238 240 243 244 246 249 251 251 253 258 260 259 262 273 274 283 283
232 230 230 230 230 231 231 233 235 236 236 237 238 238 240 242 244 246 248 250 251 253 254 255 256 260 262 261 264 272 276 283
233 231 230 230 229 231 233 235 237 238 239 240 241 243 243 245 248 250 251 253 254 255 255 256 257 259 261 265 264 267 271 274
234 232 231 230 230 232 234 236 238 239 240 242 244 245 246 247 249 252 254 256 257 256 256 257 258 260 261 263 264 267 268 271
233 232 232 232 232 233 235 237 239 240 240 242 244 246 248 250 251 253 255 257 259 258 257 257 258 259 260 262 264 265 267 269
232 233 233 232 232 235 235 237 239 241 242 244 246 248 250 252 253 254 256 257 259 259 258 257 258 260 260 261 263 265 265 266